{"data":{"norad_id":65116,"intl_designator":"2025-169A","name":"QPS-SAR-12 (KUSHINADA-I)","alt_names":[],"object_type":"PAYLOAD","status":"ACTIVE","operator":null,"country":"JPN","launch_date":"2025-08-05","launch_site_code":"RLLB","launch_vehicle":null,"mission":null,"orbit_class":"UNKNOWN","rcs_meters":null,"size_class":null,"mass_kg":null,"dimensions":null,"purposes":[],"wikipedia_slug":null,"has_3d_model":false,"image_url":null,"decayed_at":null,"tle_current":{"epoch":"2026-09-21T04:17:07.959840Z","epoch_age_seconds":106540,"freshness":"FRESH","line1":"1 65116U 25169A   26264.17856435  .00002844  00000+0  23009-3 0  9995","line2":"2 65116  42.0104 207.0715 0006990 129.1154 231.0294 15.01534081 61849","mean_motion":15.01534081,"eccentricity":0.000699,"inclination_deg":42.0104,"raan_deg":207.0715,"arg_perigee_deg":129.1154,"mean_anomaly_deg":231.0294,"bstar":0.00023009,"rev_number":6184,"period_min":95.901919125338,"perigee_km":557.31388702966,"apogee_km":567.01642944688,"semimajor_km":6940.3021582383,"source":"CELESTRAK","updated_at":"2026-09-22T09:00:30.141195Z"}}}